GW6771 Weather Reports


time (UTC)temp
C
wind
direction
speed
KPH
gust
KPH
rain 1hr
cm
rain 24hr
cm
rain mn
cm
humidity
%
barometer
mb
20260507123016 15 90 6.4 9.7 0.00 0.00 0.00 55 1015.4
20260507122016 15 338 8.0 14.5 0.00 0.00 0.00 59 1015.5
20260507121016 15 225 4.8 9.7 0.00 0.00 0.00 56 1015.6
20260507120016 15 45 4.8 12.9 0.00 0.00 0.00 57 1015.6
20260507115016 15 338 4.8 11.3 0.00 0.00 0.00 61 1015.5
20260507114016 15 0 6.4 11.3 0.00 0.00 0.00 59 1015.5
20260507113036 15 45 9.7 14.5 0.00 0.00 0.00 62 1015.6
20260507112016 15 68 6.4 14.5 0.00 0.00 0.00 62 1015.7
20260507111016 15 90 6.4 12.9 0.00 0.00 0.00 61 1015.7
20260507110016 15 90 4.8 8.0 0.00 0.00 0.00 59 1015.7
20260507105016 15 90 6.4 12.9 0.00 0.00 0.00 60 1015.7
20260507104036 15 293 1.6 4.8 0.00 0.00 0.00 59 1015.8
20260507103016 15 0 8.0 12.9 0.00 0.00 0.00 58 1015.9
20260507102016 14 338 4.8 12.9 0.00 0.00 0.00 63 1015.9
20260507101016 14 23 8.0 14.5 0.00 0.00 0.00 61 1015.9
20260507100016 14 68 4.8 8.0 0.00 0.00 0.00 63 1015.9
20260507095036 13 23 4.8 9.7 0.00 0.00 0.00 59 1015.8
20260507094016 14 23 4.8 16.1 0.00 0.00 0.00 62 1015.9
20260507093016 13 315 4.8 8.0 0.00 0.00 0.00 64 1015.8
20260507092016 13 338 8.0 9.7 0.00 0.00 0.00 64 1015.8
20260507091016 13 338 3.2 14.5 0.00 0.00 0.00 69 1015.7
20260507090016 13 338 8.0 16.1 0.00 0.00 0.00 73 1015.7
20260507085036 12 338 3.2 8.0 0.00 0.00 0.00 75 1015.6
20260507084036 12 68 3.2 8.0 0.00 0.00 0.00 76 1015.7
20260507083016 12 338 4.8 8.0 0.00 0.00 0.00 82 1015.6
20260507082016 12 338 3.2 9.7 0.00 0.00 0.00 86 1015.6
20260507081036 11 338 4.8 9.7 0.00 0.00 0.00 89 1015.7
20260507080016 11 0 3.2 4.8 0.00 0.00 0.00 90 1015.5
20260507075016 10 0 4.8 6.4 0.00 0.00 0.00 91 1015.7
20260507074036 10 0 3.2 6.4 0.00 0.00 0.00 93 1015.6
20260507073016 10 315 3.2 8.0 0.00 0.00 0.00 94 1015.5
20260507072016 8 338 1.6 3.2 0.00 0.00 0.00 94 1015.5
20260507071016 7 0.0 0.0 0.00 0.00 0.00 94 1015.4
20260507070016 7 0.0 0.0 0.00 0.00 0.00 94 1015.4
20260507065016 7 0.0 0.0 0.00 0.00 0.00 94 1015.4
20260507064016 7 0.0 0.0 0.00 0.00 0.00 94 1015.3
20260507063016 7 0.0 0.0 0.00 0.00 0.00 94 1015.2
20260507062016 7 0.0 0.0 0.00 0.03 0.00 94 1015.1
20260507061016 7 0.0 0.0 0.00 0.03 0.00 94 1015.1
20260507060036 7 0.0 0.0 0.00 0.03 0.00 95 1015.0
20260507055036 7 338 4.8 6.4 0.00 0.03 0.00 95 1014.9
20260507054036 6 23 3.2 6.4 0.00 0.03 0.00 94 1014.8
20260507053016 5 23 4.8 6.4 0.00 0.03 0.00 94 1014.8
20260507052056 5 0 6.4 6.4 0.00 0.03 0.00 94 1014.7
20260507051016 5 0 8.0 9.7 0.00 0.03 0.00 94 1014.6
20260507050016 5 0 9.7 12.9 0.00 0.03 0.00 93 1014.6
20260507045015 5 0 8.0 8.0 0.00 0.05 0.00 93 1014.6
20260507044015 5 338 6.4 8.0 0.00 0.05 0.00 93 1014.5
20260507043036 6 338 6.4 8.0 0.00 0.05 0.00 93 1014.4
20260507042036 6 338 8.0 11.3 0.00 0.05 0.00 94 1014.3
20260507041016 6 338 9.7 12.9 0.00 0.05 0.00 94 1014.3
20260507040016 6 338 9.7 11.3 0.00 0.05 0.00 94 1014.3
20260507035015 6 338 8.0 11.3 0.00 0.08 0.00 93 1014.3
20260507034036 6 338 8.0 9.7 0.00 0.08 0.00 93 1014.2
20260507033015 6 338 6.4 9.7 0.00 0.10 0.00 93 1014.2
20260507032015 6 338 6.4 9.7 0.00 0.10 0.00 93 1014.2
20260507031015 6 338 6.4 8.0 0.00 0.13 0.00 93 1014.2
20260507030015 6 338 6.4 9.7 0.00 0.13 0.00 93 1014.4
20260507025015 6 315 6.4 9.7 0.00 0.15 0.00 93 1014.3
20260507024035 6 315 4.8 8.0 0.00 0.15 0.00 93 1014.4
20260507023015 6 315 6.4 9.7 0.00 0.15 0.00 93 1014.4
20260507022015 6 315 6.4 8.0 0.00 0.15 0.00 93 1014.5
20260507021015 6 315 6.4 9.7 0.00 0.18 0.00 93 1014.3
20260507020015 6 315 6.4 9.7 0.00 0.18 0.00 92 1014.2
20260507015017 6 315 6.4 9.7 0.00 0.18 0.00 92 1014.1
20260507014017 6 315 6.4 8.0 0.00 0.18 0.00 92 1014.1
20260507013017 6 315 4.8 8.0 0.00 0.20 0.00 91 1014.0
20260507012017 6 338 6.4 9.7 0.00 0.20 0.00 92 1014.0
20260507011017 6 315 6.4 9.7 0.00 0.20 0.00 92 1014.0
20260507010037 6 315 6.4 9.7 0.00 0.23 0.00 92 1014.0
20260507005017 6 315 6.4 9.7 0.00 0.23 0.00 92 1014.0
20260507004017 6 315 8.0 11.3 0.00 0.23 0.00 92 1014.0
20260507003017 6 315 8.0 11.3 0.00 0.23 0.00 92 1014.0
20260507002017 6 315 8.0 11.3 0.00 0.23 0.00 92 1014.1
20260507001017 6 315 6.4 9.7 0.00 0.25 0.00 92 1014.0
20260507000017 6 315 6.4 9.7 0.00 0.25 0.00 92 1014.0
20260506235017 6 338 8.0 11.3 0.00 0.25 0.00 91 1014.0
20260506234017 6 315 8.0 9.7 0.00 0.25 0.00 91 1014.0
20260506233037 6 315 8.0 9.7 0.00 0.25 0.00 91 1013.9
20260506232017 6 315 6.4 9.7 0.00 0.28 0.00 91 1013.9
20260506231017 7 338 8.0 12.9 0.00 0.28 0.00 91 1013.9
20260506230017 7 315 6.4 11.3 0.00 0.28 0.00 92 1013.9
20260506225057 7 315 6.4 8.0 0.00 0.28 0.00 92 1013.9
20260506224017 7 315 6.4 9.7 0.00 0.30 0.00 92 1013.9
20260506223017 6 315 6.4 9.7 0.00 0.30 0.00 92 1013.8
20260506222037 6 315 6.4 11.3 0.00 0.33 0.00 92 1013.6
20260506221017 6 338 8.0 11.3 0.00 0.33 0.00 92 1013.7
20260506220017 6 338 8.0 12.9 0.00 0.33 0.33 91 1013.5
20260506215016 6 338 8.0 12.9 0.00 0.36 0.33 91 1013.4
20260506214015 6 338 9.7 14.5 0.00 0.38 0.33 91 1013.4
20260506213015 6 0 9.7 12.9 0.00 0.41 0.33 91 1013.3
20260506212055 6 0 9.7 12.9 0.00 0.43 0.33 90 1013.3
20260506211015 6 0 8.0 11.3 0.00 0.48 0.33 90 1013.2
20260506210015 6 0 8.0 11.3 0.00 0.51 0.33 89 1013.1
20260506205035 6 0 11.3 14.5 0.00 0.61 0.33 89 1013.1
20260506204035 7 0 9.7 12.9 0.00 0.64 0.33 89 1013.0
20260506203015 7 0 8.0 11.3 0.00 0.66 0.33 88 1013.0
20260506202015 7 0 9.7 11.3 0.00 0.69 0.33 88 1012.9
20260506201017 7 0 11.3 14.5 0.00 0.71 0.33 87 1012.8
20260506200017 7 0 11.3 14.5 0.00 0.71 0.33 87 1012.8
20260506195017 7 0 11.3 12.9 0.00 0.71 0.33 85 1012.6
20260506194017 8 0 11.3 14.5 0.00 0.76 0.33 83 1012.5
20260506193017 8 0 12.9 16.1 0.00 0.81 0.33 81 1012.3
20260506192017 9 338 12.9 16.1 0.00 0.89 0.33 79 1012.3
20260506191017 9 338 12.9 17.7 0.00 0.94 0.33 78 1012.2
20260506190018 10 338 12.9 17.7 0.00 0.99 0.33 77 1012.0
20260506185017 10 338 6.4 16.1 0.00 1.07 0.33 76 1012.1
20260506184017 10 338 8.0 12.9 0.00 1.09 0.33 75 1011.9
20260506183017 11 338 11.3 16.1 0.00 1.12 0.33 73 1011.7
20260506182058 11 338 12.9 19.3 0.00 1.14 0.33 73 1011.7
20260506181017 11 338 14.5 24.1 0.00 1.17 0.33 73 1011.6
20260506180017 11 338 9.7 17.7 0.00 1.19 0.33 77 1011.4
20260506175017 11 0 11.3 17.7 0.00 1.27 0.33 78 1011.4
20260506174017 11 0 11.3 14.5 0.00 1.30 0.33 79 1011.3
20260506173037 11 0 14.5 17.7 0.00 1.32 0.33 76 1011.2
20260506172017 11 0 16.1 19.3 0.00 1.37 0.33 75 1011.1
20260506171037 12 0 17.7 27.4 0.00 1.40 0.33 71 1011.1
20260506170017 12 0 22.5 30.6 0.00 1.45 0.33 68 1011.1
20260506165017 13 338 17.7 25.7 0.00 1.45 0.33 67 1011.1
20260506164017 13 0 17.7 25.7 0.00 1.45 0.33 68 1011.1
20260506163017 13 0 20.9 30.6 0.00 1.45 0.33 70 1010.9
20260506162017 13 0 22.5 30.6 0.00 1.45 0.33 72 1010.9
20260506161017 12 0 19.3 24.1 0.00 1.45 0.33 76 1010.9
20260506160037 12 23 19.3 25.7 0.00 1.47 0.33 76 1010.9
20260506155017 13 0 16.1 24.1 0.00 1.50 0.33 72 1010.9
20260506154057 13 23 16.1 24.1 0.00 1.52 0.33 74 1011.0
20260506153017 13 23 17.7 25.7 0.00 1.57 0.33 75 1010.9
20260506152117 12 23 17.7 25.7 0.00 1.63 0.33 75 1011.0
20260506151017 13 23 17.7 27.4 0.00 1.65 0.33 74 1010.9
20260506150017 12 23 19.3 27.4 0.00 1.68 0.33 74 1010.9
20260506145017 13 23 20.9 29.0 0.00 1.73 0.33 70 1010.8
20260506144017 15 0 19.3 25.7 0.00 1.75 0.33 65 1010.8
20260506143117 15 338 22.5 32.2 0.00 1.75 0.33 63 1010.6
20260506142017 15 338 25.7 33.8 0.00 1.80 0.33 63 1010.7
20260506141017 15 338 22.5 32.2 0.00 1.83 0.33 65 1010.6
20260506140037 15 0 20.9 30.6 0.00 1.85 0.33 68 1010.6
20260506135017 14 338 17.7 25.7 0.00 1.91 0.33 68 1010.7
20260506134017 13 0 12.9 17.7 0.00 1.93 0.33 72 1010.7
20260506133017 13 0 16.1 22.5 0.00 1.96 0.33 70 1010.8
20260506132017 13 0 12.9 19.3 0.00 1.98 0.33 72 1010.9
20260506131017 13 0 16.1 20.9 0.00 1.98 0.33 73 1010.8
20260506130016 13 0 14.5 20.9 0.00 2.01 0.33 71 1010.8
20260506125017 13 0 16.1 22.5 0.00 2.03 0.33 71 1010.7
20260506124017 13 338 16.1 22.5 0.00 2.03 0.33 71 1010.6